G4MHJ-1 Weather Reports


time (UTC)temp
F
wind
direction
speed
knots
gust
knots
rain 1hr
in
rain 24hr
in
rain mn
in
humidity
%
barometer
mb
20260507222216 52 111 0.0 1.7 0.00 0.00 0.00 85 1016.7
20260507212215 52 126 0.0 1.7 0.00 0.00 0.00 84 1016.7
20260507202214 53 134 0.0 1.7 0.00 0.00 0.00 83 1016.3
20260507192211 54 184 0.0 3.5 0.00 0.00 0.00 77 1016.0
20260507182212 55 173 0.0 6.1 0.00 0.00 0.00 79 1015.9
20260507172212 56 180 0.9 5.2 0.00 0.00 0.00 71 1015.6
20260507162209 58 164 0.9 5.2 0.00 0.00 0.00 68 1015.8
20260507152206 58 120 0.9 6.1 0.00 0.00 0.00 69 1015.8
20260507142205 58 92 0.9 5.2 0.00 0.00 0.00 67 1015.9
20260507132206 57 137 0.9 5.2 0.00 0.00 0.00 67 1016.1
20260507122205 58 190 0.9 5.2 0.00 0.00 0.00 69 1016.3
20260507112204 56 138 0.9 4.3 0.00 0.00 0.00 70 1016.4
20260507102203 55 181 0.0 5.2 0.00 0.00 0.00 70 1016.6
20260507092204 53 46 0.9 5.2 0.00 0.00 0.00 77 1016.5
20260507082202 53 51 0.9 5.2 0.00 0.00 0.00 82 1016.4
20260507072201 50 42 0.9 3.5 0.00 0.00 0.00 85 1016.2
20260507062201 49 43 0.0 1.7 0.00 0.00 0.00 87 1016.1
20260507052207 48 43 0.0 3.5 0.00 0.00 0.00 88 1015.7
20260507042157 48 43 0.9 3.5 0.00 0.00 0.00 88 1015.3
20260507032157 48 43 0.9 4.3 0.00 0.00 0.00 88 1015.3
20260507022155 48 41 0.9 3.5 0.00 0.00 0.00 88 1015.1
20260507012155 49 40 0.0 3.5 0.00 0.00 0.00 86 1014.9
20260507002155 49 46 0.9 3.5 0.00 0.00 0.00 87 1014.9
20260506232155 50 49 0.9 4.3 0.00 0.00 0.00 86 1014.8